SAS84F EKCH-EGLL

Flight info

Callsign SAS84F
Flight time N/A
Altitude 38000
Route LANGO DCT RAXLU DCT JUIST DCT ABNED L980 LOGAN
Aircraft A320/M-SDE3FGHIJ1RWXYZ/ALB1

Departure

Time 2026-04-26 10:07
Airport Copenhagen Kastrup Airport (EKCH)

Arrival

Time N/A
Airport London Heathrow Airport (EGLL)
Time Latitude Longitude Altitude Speed Heading
2026-04-26 09:33 55.62732 12.65251 27 ft 0 kts
2026-04-26 09:56 55.62728 12.65250 24 ft 3 kts
2026-04-26 09:56 55.62703 12.65245 24 ft 2 kts
2026-04-26 09:57 55.62681 12.65244 26 ft 4 kts 342°
2026-04-26 09:57 55.62660 12.65268 12 ft 4 kts 307°
2026-04-26 09:57 55.62648 12.65298 32 ft 4 kts 314°
2026-04-26 09:57 55.62627 12.65319 24 ft 4 kts 357°
2026-04-26 09:58 55.62605 12.65320 25 ft 2 kts 359°
2026-04-26 09:58 55.62603 12.65320 25 ft 0 kts 359°
2026-04-26 10:01 55.62612 12.65320 25 ft 4 kts 359°
2026-04-26 10:01 55.62647 12.65301 26 ft 7 kts 322°
2026-04-26 10:01 55.62647 12.65210 24 ft 9 kts 236°
2026-04-26 10:02 55.62582 12.65181 24 ft 11 kts 177°
2026-04-26 10:02 55.62497 12.65185 24 ft 12 kts 180°
2026-04-26 10:02 55.62405 12.65200 24 ft 14 kts 178°
2026-04-26 10:02 55.62327 12.65203 24 ft 9 kts 180°
2026-04-26 10:03 55.62256 12.65196 24 ft 11 kts 182°
2026-04-26 10:03 55.62177 12.65141 24 ft 13 kts 213°
2026-04-26 10:03 55.62093 12.65044 26 ft 16 kts 213°
2026-04-26 10:03 55.61997 12.64931 24 ft 18 kts 213°
2026-04-26 10:04 55.61883 12.64802 26 ft 21 kts 213°
2026-04-26 10:04 55.61755 12.64655 25 ft 23 kts 213°
2026-04-26 10:04 55.61615 12.64493 24 ft 26 kts 212°
2026-04-26 10:04 55.61454 12.64310 24 ft 28 kts 213°
2026-04-26 10:05 55.61295 12.64126 25 ft 25 kts 213°
2026-04-26 10:05 55.61141 12.63949 24 ft 28 kts 213°
2026-04-26 10:05 55.60979 12.63764 25 ft 26 kts 213°
2026-04-26 10:05 55.60857 12.63622 24 ft 13 kts 213°
2026-04-26 10:06 55.60776 12.63620 24 ft 14 kts 139°
2026-04-26 10:06 55.60709 12.63757 24 ft 16 kts 129°
2026-04-26 10:06 55.60672 12.63838 25 ft 4 kts 122°
2026-04-26 10:06 55.60685 12.63884 26 ft 6 kts 43°
2026-04-26 10:07 55.60772 12.64015 26 ft 44 kts 41°
2026-04-26 10:07 55.61177 12.64642 23 ft 107 kts 41°
2026-04-26 10:07 55.61863 12.65708 46 ft 151 kts 39°
2026-04-26 10:07 55.62638 12.66904 676 ft 147 kts 36°
2026-04-26 10:08 55.63420 12.68113 1293 ft 153 kts 36°
2026-04-26 10:08 55.64266 12.69406 1577 ft 174 kts 37°
2026-04-26 10:08 55.65238 12.70902 1866 ft 196 kts 38°
2026-04-26 10:08 55.66338 12.72555 2174 ft 220 kts 36°
2026-04-26 10:09 55.67573 12.74389 2608 ft 243 kts 37°
2026-04-26 10:09 55.68862 12.76426 3379 ft 254 kts 45°
2026-04-26 10:09 55.69741 12.79182 4326 ft 262 kts 70°
2026-04-26 10:09 55.69920 12.82419 5329 ft 269 kts 95°
2026-04-26 10:10 55.69305 12.85583 6249 ft 278 kts 120°
2026-04-26 10:10 55.67944 12.88051 7077 ft 286 kts 147°
2026-04-26 10:10 55.66100 12.89475 7857 ft 293 kts 160°
2026-04-26 10:10 55.64128 12.90497 8602 ft 299 kts 172°
2026-04-26 10:11 55.62039 12.90671 9360 ft 303 kts 188°
2026-04-26 10:11 55.59973 12.89949 10132 ft 304 kts 203°
2026-04-26 10:11 55.58044 12.88376 10652 ft 312 kts 218°
2026-04-26 10:11 55.56330 12.85901 10880 ft 326 kts 232°
2026-04-26 10:12 55.54737 12.82940 11368 ft 337 kts 232°
2026-04-26 10:12 55.53234 12.79774 11998 ft 336 kts 242°
2026-04-26 10:12 55.52121 12.76180 12677 ft 332 kts 255°
2026-04-26 10:12 55.51461 12.72307 13376 ft 328 kts 266°
2026-04-26 10:13 55.51235 12.68335 14099 ft 326 kts 274°
2026-04-26 10:13 55.51098 12.64328 14758 ft 328 kts 274°
2026-04-26 10:13 55.50950 12.60295 15416 ft 331 kts 274°
2026-04-26 10:13 55.50796 12.56235 16058 ft 333 kts 274°
2026-04-26 10:14 55.50639 12.52153 16701 ft 335 kts 274°
2026-04-26 10:14 55.50480 12.48041 17359 ft 337 kts 274°
2026-04-26 10:14 55.50320 12.43913 18011 ft 339 kts 274°
2026-04-26 10:14 55.50159 12.39739 18651 ft 342 kts 274°
2026-04-26 10:15 55.49994 12.35546 19220 ft 344 kts 274°
2026-04-26 10:15 55.49826 12.31324 19784 ft 346 kts 273°
2026-04-26 10:15 55.49544 12.27071 20362 ft 356 kts 265°
2026-04-26 10:15 55.48742 12.22864 20920 ft 370 kts 252°
2026-04-26 10:16 55.47366 12.18936 21469 ft 384 kts 241°
2026-04-26 10:16 55.45767 12.15223 22005 ft 386 kts 241°
2026-04-26 10:16 55.44117 12.11389 22562 ft 389 kts 241°
2026-04-26 10:16 55.42478 12.07575 23104 ft 392 kts 241°
2026-04-26 10:17 55.40833 12.03735 23664 ft 394 kts 241°
2026-04-26 10:17 55.39176 11.99865 24156 ft 397 kts 241°
2026-04-26 10:17 55.37508 11.95977 24603 ft 399 kts 241°
2026-04-26 10:17 55.35831 11.92076 25063 ft 401 kts 241°
2026-04-26 10:18 55.34147 11.88163 25517 ft 402 kts 241°
2026-04-26 10:18 55.32451 11.84236 25960 ft 404 kts 241°
2026-04-26 10:18 55.30747 11.80299 26396 ft 406 kts 240°
2026-04-26 10:18 55.29033 11.76351 26833 ft 407 kts 240°
2026-04-26 10:19 55.27311 11.72395 27256 ft 409 kts 240°
2026-04-26 10:19 55.25606 11.68479 27655 ft 411 kts 240°
2026-04-26 10:19 55.23926 11.64437 28063 ft 410 kts 243°
2026-04-26 10:19 55.22344 11.60290 28413 ft 409 kts 244°
2026-04-26 10:20 55.20820 11.56078 28825 ft 410 kts 244°
2026-04-26 10:20 55.19802 11.53206 29104 ft 411 kts 245°
2026-04-26 10:20 55.17800 11.47566 29623 ft 413 kts 244°
2026-04-26 10:20 55.16262 11.43304 29999 ft 415 kts 244°
2026-04-26 10:21 55.14697 11.39044 30379 ft 418 kts 243°
2026-04-26 10:21 55.13109 11.34782 30694 ft 419 kts 243°
2026-04-26 10:21 55.11507 11.30512 31021 ft 421 kts 243°
2026-04-26 10:21 55.09898 11.26245 31440 ft 420 kts 243°
2026-04-26 10:22 55.08296 11.22007 31921 ft 417 kts 243°
2026-04-26 10:22 55.06707 11.17789 32401 ft 415 kts 243°
2026-04-26 10:22 55.05128 11.13593 32878 ft 413 kts 243°
2026-04-26 10:22 55.03557 11.09422 33354 ft 411 kts 243°
2026-04-26 10:23 55.01992 11.05271 33797 ft 408 kts 242°
2026-04-26 10:23 55.00437 11.01150 34304 ft 406 kts 243°
2026-04-26 10:23 54.98890 10.97057 34721 ft 404 kts 242°
2026-04-26 10:23 54.97346 10.92975 35042 ft 404 kts 242°
2026-04-26 10:24 54.95800 10.88903 35346 ft 404 kts 242°
2026-04-26 10:24 54.94772 10.86202 35538 ft 404 kts 242°
2026-04-26 10:24 54.93212 10.82130 35821 ft 405 kts 241°
2026-04-26 10:24 54.91634 10.78073 36099 ft 406 kts 241°
2026-04-26 10:25 54.90045 10.74022 36374 ft 406 kts 240°
2026-04-26 10:25 54.87929 10.68650 36734 ft 407 kts 240°
2026-04-26 10:25 54.86849 10.65908 36912 ft 407 kts 240°
2026-04-26 10:25 54.84729 10.60537 37246 ft 408 kts 240°
2026-04-26 10:26 54.83645 10.57793 37412 ft 408 kts 240°
2026-04-26 10:26 54.82036 10.53735 37654 ft 409 kts 240°
2026-04-26 10:26 54.80425 10.49673 37867 ft 409 kts 240°
2026-04-26 10:26 54.78814 10.45614 38113 ft 409 kts 240°
2026-04-26 10:27 54.77200 10.41544 38312 ft 410 kts 240°
2026-04-26 10:27 54.75603 10.37513 38351 ft 413 kts 240°
2026-04-26 10:27 54.72314 10.29241 38359 ft 415 kts 239°
2026-04-26 10:28 54.69434 10.20736 38356 ft 412 kts 245°
2026-04-26 10:28 54.66644 10.12084 38355 ft 412 kts 245°
2026-04-26 10:29 54.63844 10.03436 38357 ft 412 kts 245°
2026-04-26 10:29 54.61043 9.94792 38362 ft 413 kts 245°
2026-04-26 10:30 54.58230 9.86153 38332 ft 413 kts 244°
2026-04-26 10:30 54.55412 9.77525 38338 ft 413 kts 244°
2026-04-26 10:31 54.52577 9.68897 38326 ft 414 kts 244°
2026-04-26 10:31 54.49739 9.60298 38338 ft 413 kts 244°
2026-04-26 10:32 54.46905 9.51691 38343 ft 413 kts 244°
2026-04-26 10:32 54.44069 9.43101 38346 ft 413 kts 244°
2026-04-26 10:33 54.41217 9.34536 38346 ft 413 kts 243°
2026-04-26 10:33 54.38354 9.25983 38327 ft 413 kts 243°
2026-04-26 10:34 54.35491 9.17443 38352 ft 413 kts 243°
2026-04-26 10:34 54.32624 9.08906 38350 ft 413 kts 243°
2026-04-26 10:35 54.29749 9.00380 38359 ft 413 kts 243°
2026-04-26 10:35 54.26865 8.91858 38363 ft 414 kts 243°
2026-04-26 10:36 54.23975 8.83345 38358 ft 414 kts 243°
2026-04-26 10:36 54.21081 8.74842 38367 ft 414 kts 243°
2026-04-26 10:37 54.18177 8.66347 38353 ft 414 kts 242°
2026-04-26 10:37 54.15257 8.57873 38350 ft 414 kts 242°
2026-04-26 10:38 54.12354 8.49461 38361 ft 414 kts 242°
2026-04-26 10:38 54.09430 8.40987 38360 ft 415 kts 242°
2026-04-26 10:39 54.06495 8.32511 38372 ft 416 kts 242°
2026-04-26 10:39 54.03544 8.24044 38369 ft 416 kts 242°
2026-04-26 10:40 54.00586 8.15573 38375 ft 417 kts 242°
2026-04-26 10:40 53.97622 8.07111 38378 ft 417 kts 242°
2026-04-26 10:41 53.94650 7.98663 38368 ft 417 kts 242°
2026-04-26 10:41 53.91672 7.90215 38379 ft 417 kts 242°
2026-04-26 10:42 53.88690 7.81774 38377 ft 417 kts 242°
2026-04-26 10:42 53.85701 7.73348 38381 ft 417 kts 242°
2026-04-26 10:43 53.82703 7.64939 38381 ft 417 kts 242°
2026-04-26 10:43 53.79699 7.56534 38377 ft 417 kts 242°
2026-04-26 10:44 53.76692 7.48145 38383 ft 417 kts 241°
2026-04-26 10:44 53.73671 7.39770 38368 ft 417 kts 241°
2026-04-26 10:45 53.70645 7.31405 38374 ft 418 kts 241°
2026-04-26 10:45 53.67609 7.23049 38377 ft 418 kts 240°
2026-04-26 10:46 53.64571 7.14699 38379 ft 418 kts 241°
2026-04-26 10:46 53.61534 7.06349 38381 ft 418 kts 240°
2026-04-26 10:47 53.58484 6.98025 38384 ft 418 kts 240°
2026-04-26 10:47 53.55381 6.89751 38384 ft 419 kts 238°
2026-04-26 10:48 53.52055 6.81788 38370 ft 419 kts 236°
2026-04-26 10:48 53.48597 6.73892 38376 ft 420 kts 236°
2026-04-26 10:49 53.45160 6.65970 38373 ft 420 kts 237°
2026-04-26 10:49 53.41753 6.58023 38378 ft 420 kts 237°
2026-04-26 10:50 53.38920 6.51419 38385 ft 420 kts 237°
2026-04-26 10:50 53.34925 6.42149 38377 ft 420 kts 237°
2026-04-26 10:51 53.29773 6.30290 38388 ft 420 kts 236°
2026-04-26 10:52 53.26328 6.22400 38386 ft 420 kts 236°
2026-04-26 10:52 53.22891 6.14517 38398 ft 420 kts 236°
2026-04-26 10:53 53.19441 6.06642 38398 ft 420 kts 236°
2026-04-26 10:53 53.15990 5.98784 38398 ft 420 kts 236°
2026-04-26 10:54 53.10802 5.87016 38392 ft 420 kts 236°
2026-04-26 10:54 53.07360 5.79234 38385 ft 420 kts 236°
2026-04-26 10:55 53.03886 5.71412 38393 ft 421 kts 236°
2026-04-26 10:55 53.00400 5.63603 38401 ft 421 kts 236°
2026-04-26 10:56 52.96911 5.55801 38397 ft 421 kts 236°
2026-04-26 10:56 52.93414 5.48006 38394 ft 421 kts 236°
2026-04-26 10:57 52.89917 5.40231 38396 ft 421 kts 236°
2026-04-26 10:57 52.86413 5.32457 38392 ft 421 kts 236°
2026-04-26 10:58 52.82903 5.24697 38397 ft 421 kts 236°
2026-04-26 10:58 52.79384 5.16954 38396 ft 421 kts 236°
2026-04-26 10:59 52.75868 5.09210 38397 ft 421 kts 235°
2026-04-26 10:59 52.72340 5.01480 38375 ft 421 kts 236°
2026-04-26 11:00 52.68802 4.93773 38376 ft 421 kts 236°
2026-04-26 11:00 52.65262 4.86075 38366 ft 422 kts 236°
2026-04-26 11:01 52.61719 4.78383 38371 ft 422 kts 236°
2026-04-26 11:01 52.58162 4.70699 38373 ft 422 kts 235°
2026-04-26 11:02 52.54602 4.63026 38371 ft 422 kts 235°
2026-04-26 11:02 52.51041 4.55358 38374 ft 422 kts 235°
2026-04-26 11:03 52.47478 4.47705 38370 ft 422 kts 235°
2026-04-26 11:03 52.43905 4.40063 38359 ft 422 kts 235°
2026-04-26 11:04 52.40321 4.32432 38375 ft 423 kts 235°
2026-04-26 11:04 52.36730 4.24811 38376 ft 423 kts 235°
2026-04-26 11:05 52.33134 4.17194 38377 ft 423 kts 235°
2026-04-26 11:05 52.29531 4.09584 38387 ft 423 kts 235°
2026-04-26 11:06 52.26535 4.03276 38391 ft 423 kts 235°
2026-04-26 11:06 52.22309 3.94412 38391 ft 423 kts 235°
2026-04-26 11:07 52.18713 3.86891 38378 ft 424 kts 235°
2026-04-26 11:07 52.15089 3.79322 38383 ft 424 kts 235°
2026-04-26 11:08 52.11458 3.71759 38386 ft 424 kts 235°
2026-04-26 11:08 52.07817 3.64208 38389 ft 424 kts 235°
2026-04-26 11:09 52.04171 3.56664 38393 ft 424 kts 235°
2026-04-26 11:09 52.00518 3.49136 38392 ft 424 kts 235°
2026-04-26 11:10 51.96863 3.41616 38366 ft 425 kts 235°
2026-04-26 11:10 51.93202 3.34100 38372 ft 425 kts 235°
2026-04-26 11:11 51.89530 3.26594 38384 ft 425 kts 235°
2026-04-26 11:11 51.86155 3.18806 38384 ft 420 kts 247°
2026-04-26 11:12 51.84460 3.09915 38378 ft 412 kts 265°
2026-04-26 11:12 51.83968 3.02257 38378 ft 412 kts 266°
2026-04-26 11:13 51.83363 2.93040 38377 ft 413 kts 266°
2026-04-26 11:13 51.82752 2.83818 38379 ft 413 kts 266°
2026-04-26 11:14 51.82134 2.74600 38383 ft 412 kts 266°
2026-04-26 11:14 51.81505 2.65396 38384 ft 412 kts 266°
2026-04-26 11:15 51.80866 2.56202 38382 ft 412 kts 265°
2026-04-26 11:15 51.80225 2.47009 38383 ft 412 kts 265°
2026-04-26 11:16 51.79575 2.37825 38373 ft 411 kts 265°
2026-04-26 11:16 51.78918 2.28651 38377 ft 411 kts 265°
2026-04-26 11:17 51.78263 2.19479 38365 ft 411 kts 266°
2026-04-26 11:17 51.77972 2.14880 37551 ft 416 kts 266°
2026-04-26 11:17 51.77704 2.10188 36045 ft 423 kts 267°
2026-04-26 11:18 51.77445 2.05460 34909 ft 421 kts 267°
2026-04-26 11:18 51.77189 2.00839 33909 ft 416 kts 267°
2026-04-26 11:18 51.76923 1.96227 32883 ft 410 kts 267°
2026-04-26 11:18 51.76652 1.91622 31896 ft 404 kts 266°
2026-04-26 11:19 51.76381 1.87130 30950 ft 399 kts 266°
2026-04-26 11:19 51.76105 1.82704 29946 ft 395 kts 266°
2026-04-26 11:19 51.75829 1.78323 28910 ft 390 kts 265°
2026-04-26 11:19 51.75560 1.73993 27933 ft 385 kts 265°
2026-04-26 11:20 51.75293 1.69722 26993 ft 381 kts 265°
2026-04-26 11:20 51.75117 1.66918 26401 ft 378 kts 265°
2026-04-26 11:20 51.74771 1.61373 25361 ft 371 kts 265°
2026-04-26 11:20 51.74517 1.57273 24842 ft 368 kts 265°
2026-04-26 11:21 51.74256 1.53096 24271 ft 371 kts 265°
2026-04-26 11:21 51.73996 1.49014 23866 ft 369 kts 264°
2026-04-26 11:21 51.73726 1.44872 23285 ft 363 kts 264°
2026-04-26 11:21 51.73464 1.40861 22554 ft 355 kts 264°
2026-04-26 11:22 51.73212 1.37030 22050 ft 342 kts 264°
2026-04-26 11:22 51.72965 1.33265 21544 ft 335 kts 264°
2026-04-26 11:22 51.72720 1.29529 21048 ft 336 kts 264°
2026-04-26 11:22 51.72474 1.25782 20543 ft 336 kts 264°
2026-04-26 11:23 51.72225 1.22032 20039 ft 336 kts 264°
2026-04-26 11:23 51.71972 1.18280 19534 ft 337 kts 264°
2026-04-26 11:23 51.71718 1.14517 19024 ft 338 kts 264°
2026-04-26 11:23 51.71464 1.10753 18499 ft 338 kts 264°
2026-04-26 11:24 51.71211 1.06980 17958 ft 338 kts 264°
2026-04-26 11:24 51.70957 1.03227 17442 ft 336 kts 264°
2026-04-26 11:24 51.70702 0.99483 16949 ft 335 kts 264°
2026-04-26 11:24 51.70446 0.95761 16439 ft 334 kts 263°
2026-04-26 11:25 51.70189 0.92053 15990 ft 331 kts 263°
2026-04-26 11:25 51.69935 0.88429 15535 ft 318 kts 263°
2026-04-26 11:25 51.69690 0.84956 15108 ft 306 kts 263°
2026-04-26 11:25 51.69451 0.81569 14685 ft 302 kts 263°
2026-04-26 11:26 51.69215 0.78207 14280 ft 301 kts 263°
2026-04-26 11:26 51.68978 0.74850 13835 ft 302 kts 263°
2026-04-26 11:26 51.68741 0.71493 13421 ft 301 kts 263°
2026-04-26 11:26 51.68504 0.68146 12999 ft 300 kts 263°
2026-04-26 11:27 51.68267 0.64808 12587 ft 299 kts 263°
2026-04-26 11:27 51.68028 0.61483 12207 ft 298 kts 263°
2026-04-26 11:27 51.67793 0.58228 11916 ft 288 kts 263°
2026-04-26 11:27 51.67562 0.55047 11396 ft 284 kts 263°
2026-04-26 11:28 51.67331 0.51890 10995 ft 284 kts 263°
2026-04-26 11:28 51.67097 0.48711 10601 ft 286 kts 263°
2026-04-26 11:28 51.66864 0.45523 10207 ft 287 kts 263°
2026-04-26 11:28 51.66630 0.42321 9807 ft 287 kts 263°
2026-04-26 11:29 51.66394 0.39146 9429 ft 282 kts 263°
2026-04-26 11:29 51.66163 0.36038 8996 ft 279 kts 263°
2026-04-26 11:29 51.65932 0.32938 8599 ft 279 kts 263°
2026-04-26 11:29 51.65703 0.29848 8216 ft 278 kts 263°
2026-04-26 11:30 51.65474 0.26756 7836 ft 277 kts 263°
2026-04-26 11:30 51.65321 0.24722 7582 ft 274 kts 263°
2026-04-26 11:30 51.65022 0.20815 7342 ft 251 kts 263°